Oklahoma City Wiley Post, OK

9:06 PM CST on November 23, 2017 (GMT -0600)
Wiley Post

Weather History for KPWA - November, 2012

Change the Weather History Date:

Friday, November 16, 2012

  Actual Average Record
Temperature  
Mean Temperature 48 °F -  
Max Temperature 61 °F 57 °F 84 °F (2016)
Min Temperature 35 °F 37 °F 18 °F (1955)
Degree Days  
Heating Degree Days 17    
Moisture  
Dew Point 30 °F    
Average Humidity 52    
Maximum Humidity 82    
Minimum Humidity 27    
Precipitation  
Precipitation 0.00 in - - ()
Sea Level Pressure  
Sea Level Pressure 30.38 in    
Wind  
Wind Speed 2 mph (SE)    
Max Wind Speed 9 mph    
Max Gust Speed -    
Visibility 9 miles    
Events      
Averages and records for this station are not official NWS values.
T = Trace of Precipitation, MM = Missing Value Source: NWS Daily Summary

Daily Weather History Graph

Daily Weather History Graph

Search for Another Location

Airport or City:

Trip Planner

Search our weather history database for the weather conditions in past years. The results will help you decide how hot, cold, wet, or windy it might be!

Date:

Astronomy

Nov. 16, 2012 Rise Set
Actual Time 7:07 AM CST 5:22 PM CST
Civil Twilight 6:40 AM CST 5:50 PM CST
Nautical Twilight 6:09 AM CST 6:21 PM CST
Astronomical Twilight 5:39 AM CST 6:51 PM CST
Moon 10:01 AM CST (11/16) 8:25 PM CST (11/16)
Length of Visible Light 11h 09m
Length of Day
10h 15m
Waxing Crescent, 12% of the Moon is Illuminated
Nov 16
Waxing Crescent
Nov 20
First Quarter
Nov 28
Full
Dec 6
Last Quarter
Dec 13
New

Hourly Weather History & Observations

Time (CST) Temp. Windchill Dew Point Humidity Pressure Visibility Wind Dir Wind Speed Gust Speed Precip Events Conditions
12:53 AM 44.1 °F - 32.0 °F 63% 30.37 in 10.0 mi Calm Calm - N/A   Clear
1:53 AM 43.0 °F 41.3 °F 32.0 °F 65% 30.38 in 10.0 mi ESE 3.5 mph - N/A   Clear
2:53 AM 39.0 °F - 30.0 °F 70% 30.39 in 9.0 mi Calm Calm - N/A   Clear
3:53 AM 37.9 °F - 30.9 °F 76% 30.39 in 8.0 mi Calm Calm - N/A   Clear
4:53 AM 39.0 °F - 30.9 °F 73% 30.40 in 8.0 mi Calm Calm - N/A   Clear
5:53 AM 36.0 °F - 30.0 °F 79% 30.41 in 8.0 mi Calm Calm - N/A   Clear
6:53 AM 35.1 °F - 30.0 °F 82% 30.42 in 7.0 mi Calm Calm - N/A   Clear
7:53 AM 37.0 °F - 30.9 °F 79% 30.43 in 10.0 mi Calm Calm - N/A   Clear
8:53 AM 46.9 °F - 37.0 °F 68% 30.43 in 10.0 mi Calm Calm - N/A   Clear
9:53 AM 54.0 °F - 32.0 °F 43% 30.43 in 9.0 mi NE 4.6 mph - N/A   Clear
10:53 AM 57.9 °F - 33.1 °F 39% 30.43 in 8.0 mi ENE 4.6 mph - N/A   Clear
11:53 AM 59.0 °F - 30.0 °F 33% 30.40 in 9.0 mi Variable 5.8 mph - N/A   Clear
12:53 PM 60.1 °F - 28.9 °F 31% 30.38 in 10.0 mi SSE 9.2 mph - N/A   Clear
1:53 PM 61.0 °F - 28.0 °F 29% 30.36 in 10.0 mi South 6.9 mph - N/A   Clear
2:53 PM 61.0 °F - 27.0 °F 27% 30.35 in 10.0 mi SE 5.8 mph - N/A   Clear
3:53 PM 61.0 °F - 28.0 °F 29% 30.34 in 10.0 mi Calm Calm - N/A   Clear
4:53 PM 57.0 °F - 30.0 °F 36% 30.34 in 10.0 mi South 5.8 mph - N/A   Clear
5:53 PM 53.1 °F - 28.0 °F 38% 30.34 in 10.0 mi South 3.5 mph - N/A   Clear
6:53 PM 48.0 °F - 30.0 °F 50% 30.36 in 10.0 mi Calm Calm - N/A   Clear
7:53 PM 46.9 °F - 30.0 °F 52% 30.37 in 9.0 mi SSE 3.5 mph - N/A   Clear
8:53 PM 50.0 °F - 30.0 °F 46% 30.35 in 10.0 mi ESE 8.1 mph - N/A   Clear
9:53 PM 48.9 °F - 28.9 °F 46% 30.35 in 10.0 mi SE 8.1 mph - N/A   Clear
10:53 PM 48.9 °F - 30.0 °F 48% 30.35 in 10.0 mi SE 9.2 mph - N/A   Clear
11:53 PM 48.0 °F - 30.0 °F 50% 30.35 in 10.0 mi SSE 9.2 mph - N/A   Clear